FW5349 Weather Reports


Display with metric or nautical units.
time (UTC)temp
F
wind
direction
speed
MPH
gust
MPH
rain 1hr
in
rain 24hr
in
rain mn
in
humidity
%
barometer
mb
20260507184516 49 182 0.0 6.0 0.00 0.02 0.01 91 1002.7
20260507183009 49 189 1.0 6.0 0.00 0.02 0.01 91 1002.7
20260507181507 49 158 3.0 10.0 0.01 0.02 0.01 91 1002.5
20260507180006 48 132 2.0 12.0 0.01 0.02 0.01 90 1001.7
20260507174502 48 101 5.0 11.0 0.01 0.02 0.01 91 1002.0
20260507173058 48 105 4.0 9.0 0.01 0.02 0.01 90 1003.0
20260507171603 48 141 3.0 10.0 0.00 0.01 0.00 91 1004.1
20260507170057 49 134 3.0 8.0 0.00 0.01 0.00 91 1003.5
20260507164605 48 176 0.0 5.0 0.00 0.01 0.00 91 1004.0
20260507163056 48 144 1.0 8.0 0.00 0.01 0.00 91 1003.6
20260507161554 48 140 1.0 7.0 0.00 0.01 0.00 91 1003.3
20260507160051 49 156 3.0 7.0 0.00 0.01 0.00 90 1005.2
20260507154552 49 264 0.0 3.0 0.00 0.01 0.00 91 1004.4
20260507153048 50 227 2.0 8.0 0.00 0.01 0.00 91 1004.8
20260507151547 50 166 6.0 16.0 0.00 0.01 0.00 90 1005.1
20260507150046 50 248 4.0 17.0 0.00 0.01 0.00 90 1005.3
20260507144544 50 200 4.0 18.0 0.00 0.01 0.00 91 1005.2
20260507143042 51 200 7.0 16.0 0.00 0.01 0.00 91 1005.6
20260507141543 51 173 10.0 23.0 0.00 0.01 0.00 91 1005.6
20260507140040 50 173 6.0 14.0 0.00 0.01 0.00 90 1005.6
20260507134538 50 171 6.0 15.0 0.00 0.01 0.00 90 1006.1
20260507133035 50 127 6.0 14.0 0.00 0.01 0.00 90 1006.2
20260507131533 51 177 5.0 14.0 0.00 0.01 0.00 89 1006.2
20260507130039 51 92 5.0 16.0 0.00 0.01 0.00 90 1006.5
20260507124530 51 163 5.0 17.0 0.00 0.01 0.00 89 1007.0
20260507123028 51 160 6.0 16.0 0.00 0.01 0.00 90 1007.2
20260507121527 51 118 8.0 16.0 0.00 0.01 0.00 89 1007.3
20260507120026 51 356 7.0 17.0 0.00 0.01 0.00 89 1007.0
20260507114525 52 176 8.0 19.0 0.00 0.02 0.00 90 1007.2
20260507113023 51 152 5.0 21.0 0.00 0.02 0.00 89 1007.6
20260507111520 52 105 7.0 20.0 0.00 0.02 0.00 89 1007.4
20260507110018 52 179 10.0 24.0 0.00 0.02 0.00 89 1007.8
20260507104516 52 177 8.0 27.0 0.00 0.02 0.00 89 1007.5
20260507103025 52 183 8.0 22.0 0.00 0.02 0.00 88 1008.1
20260507101508 51 150 9.0 18.0 0.00 0.02 0.00 88 1007.9
20260507100006 51 161 7.0 23.0 0.00 0.02 0.00 87 1008.2
20260507094503 51 108 11.0 18.0 0.00 0.02 0.00 87 1008.3
20260507093002 50 124 8.0 17.0 0.00 0.02 0.00 89 1008.5
20260507091600 49 131 7.0 17.0 0.00 0.02 0.00 86 1008.4
20260507090057 48 133 7.0 11.0 0.00 0.02 0.00 84 1008.4
20260507084555 48 119 3.0 10.0 0.00 0.02 0.00 83 1008.6
20260507083052 48 143 3.0 11.0 0.00 0.02 0.00 82 1009.2
20260507081549 48 147 5.0 13.0 0.00 0.02 0.00 81 1009.5
20260507080046 49 124 6.0 12.0 0.00 0.02 0.00 78 1009.7
20260507074546 50 133 5.0 14.0 0.00 0.02 0.00 77 1009.8
20260507073042 51 151 4.0 11.0 0.00 0.02 0.00 77 1010.2
20260507071600 52 97 7.0 17.0 0.00 0.02 0.00 75 1010.3
20260507070040 52 107 5.0 13.0 0.00 0.02 0.00 75 1009.9
20260507064539 52 140 7.0 17.0 0.00 0.02 0.00 76 1010.4
20260507063042 51 113 7.0 16.0 0.00 0.02 0.00 78 1010.6
20260507061535 50 117 3.0 11.0 0.00 0.02 0.00 78 1011.2
20260507060036 50 170 5.0 11.0 0.00 0.02 0.00 77 1010.9
20260507054530 52 117 4.0 14.0 0.00 0.02 0.00 75 1011.1
20260507053035 52 162 6.0 13.0 0.00 0.02 0.00 75 1012.0
20260507051530 52 189 5.0 12.0 0.00 0.02 0.00 76 1012.7
20260507050027 52 158 5.0 13.0 0.00 0.02 0.00 77 1013.1
20260507044521 51 157 3.0 11.0 0.00 0.02 0.00 77 1013.1
20260507043017 50 138 5.0 10.0 0.00 0.02 0.00 77 1013.6
20260507041516 51 151 2.0 8.0 0.00 0.02 0.00 76 1013.6
20260507040015 52 102 5.0 10.0 0.00 0.02 0.00 75 1014.0
20260507034527 52 163 5.0 10.0 0.01 0.02 0.00 77 1013.9
20260507033015 51 127 4.0 9.0 0.01 0.02 0.00 77 1014.4
20260507031505 50 179 4.0 10.0 0.01 0.02 0.00 78 1014.8
20260507030002 50 162 2.0 8.0 0.01 0.02 0.02 77 1014.9
20260507024605 50 162 3.0 9.0 0.00 0.01 0.01 77 1015.2
20260507023057 50 164 4.0 11.0 0.00 0.01 0.01 77 1015.5
20260507021556 51 173 4.0 10.0 0.00 0.01 0.01 76 1015.8
20260507020055 51 139 4.0 11.0 0.00 0.01 0.01 76 1016.2
20260507014602 52 128 3.0 14.0 0.00 0.01 0.01 75 1016.3
20260507013052 52 163 5.0 11.0 0.00 0.01 0.01 75 1016.4
20260507011552 52 165 5.0 11.0 0.00 0.01 0.01 75 1016.6
20260507004601 53 152 4.0 14.0 0.00 0.01 0.01 74 1017.0
20260507003054 53 150 4.0 15.0 0.00 0.01 0.01 73 1017.0
20260507001552 54 194 4.0 10.0 0.00 0.01 0.01 73 1016.9
20260507000048 54 198 2.0 11.0 0.00 0.01 0.01 71 1016.9
20260506234548 55 194 5.0 18.0 0.00 0.01 0.01 70 1016.8
20260506233052 55 198 3.0 16.0 0.00 0.01 0.01 68 1016.7
20260506231545 55 187 4.0 12.0 0.00 0.01 0.01 68 1016.8
20260506230045 56 133 6.0 17.0 0.00 0.01 0.01 68 1016.9
20260506224544 57 159 5.0 13.0 0.00 0.02 0.01 68 1016.9
20260506223043 57 146 6.0 12.0 0.00 0.02 0.01 68 1017.0
20260506221542 57 188 6.0 14.0 0.00 0.02 0.01 68 1017.0
20260506220047 58 202 11.0 22.0 0.00 0.02 0.01 68 1017.0
20260506214549 58 167 7.0 24.0 0.00 0.02 0.01 68 1016.9
20260506213040 59 193 6.0 14.0 0.00 0.02 0.01 68 1016.9
20260506211537 59 216 5.0 20.0 0.00 0.02 0.01 68 1016.7
20260506210036 60 147 11.0 18.0 0.00 0.02 0.01 67 1016.4
20260506204542 61 221 10.0 23.0 0.00 0.02 0.01 66 1016.7
20260506203034 61 150 9.0 22.0 0.00 0.02 0.01 67 1016.7
20260506201534 62 207 6.0 17.0 0.00 0.02 0.01 66 1016.8
20260506200032 62 148 8.0 18.0 0.00 0.02 0.01 66 1016.9
20260506194531 63 236 5.0 24.0 0.00 0.02 0.01 66 1017.0
20260506193030 63 160 7.0 25.0 0.00 0.02 0.01 67 1017.1
20260506191529 63 212 6.0 15.0 0.00 0.02 0.01 68 1017.3
20260506190028 62 173 7.0 29.0 0.00 0.02 0.01 68 1017.4